Regional Weather Roundup
Issued by NWS

Home | Current Version | Previous Version | Text Only | Print | Product List | Glossary On
Versions: 1 2 3 4 5 6 7 8 9 10 11 12 13 14 15 16 17 18 19 20 21 22 23 24 25 26 27 28 29 30 31 32 33 34 35 36 37 38 39 40 41 42 43 44 45 46 47 48 49 50
226
ASHW40 PHFO 231812
RWRHI

WEATHER ROUNDUP FOR HAWAII
NATIONAL WEATHER SERVICE HONOLULU HI
800 AM HST THU MAR 23 2017

THIS IS AN AUTOMATED REPORT THAT HAS NOT BEEN QUALITY CONTROLLED.

NOTE..."FAIR" INDICATES FEW OR NO CLOUDS BELOW 12,000 FEET WITH NO
SIGNIFICANT WEATHER AND/OR OBSTRUCTIONS TO VISIBILITY.

* - THESE SITES REPORT LIMITED FIELDS

HIZ001>004-231900-
KAUAI-NIIHAU-

CITY           SKY/WX    TMP DP  RH WIND       PRES   REMARKS
LIHUE APT      PTSUNNY   74  68  81 CALM      30.17R
PORT ALLEN*      N/A     70 N/A N/A NE6         N/A
POIPU*           N/A     68 N/A N/A N2          N/A
PRINCEVILLE*     N/A     68 N/A N/A S3          N/A
KOKOLE POINT*  NOT AVBL
MOLOAA DAIRY*    N/A     73  68  83 SE5         N/A
WAIMEA HTS*    NOT AVBL
PUU OPAE*      NOT AVBL
PUU LUA*       NOT AVBL
MAKAHA RIDGE*  NOT AVBL
$$

HIZ005>011-231900-
OAHU-

CITY           SKY/WX    TMP DP  RH WIND       PRES   REMARKS
HONOLULU       CLOUDY    74  67  78 CALM      30.16R
KALAELOA       PTSUNNY   74  67  78 CALM      30.17R
KANEOHE MCB    PTSUNNY   78  69  73 E6        30.14
WHEELER FIELD  NOT AVBL
BELLOWS*       NOT AVBL
KAHUKU*        NOT AVBL
WHEELER*       NOT AVBL
WAIANAE HARBOR NOT AVBL
DILLINGHAM*      N/A     61  61 100 CALM        N/A
KAHUKU TRN*    NOT AVBL
KAWAILOA*        N/A     68  64  88 CALM        N/A
KII*             N/A     75  70  83 E12         N/A
MAKUA RANGE*     N/A     70  63  78 NW5G10      N/A
OAHU FOREST NW NOT AVBL
SCHOFIELD BRK*   N/A     66  64  94 MISG        N/A
SCHOFIELD S*   NOT AVBL
WAIANAE VLY*   NOT AVBL
KUAOKALA*      NOT AVBL
HONOULIUULI*   NOT AVBL
MOKUOLOE IS*   NOT AVBL
PALEHUA*       NOT AVBL
WAIAWA PHB*    NOT AVBL
$$

HIZ012>013-231900-
MOLOKAI-

CITY           SKY/WX    TMP DP  RH WIND       PRES   REMARKS
MOLOKAI AIRPT  CLOUDY    72  69  90 N9G20     30.17R
KALAUPAPA      NOT AVBL
MAKAPULAPAI*   NOT AVBL
MOLOKAI 1*     NOT AVBL
PUU ALII*      NOT AVBL
$$

HIZ016-231900-
KAHOOLAWE-

CITY           SKY/WX    TMP DP  RH WIND       PRES   REMARKS
KAHOOLAWE*     NOT AVBL
HAKIOAWA*      NOT AVBL
HONOKANAIA*      N/A     73  66  78 NE8       30.07R
KANELOA*         N/A     73  68  83 E14G21      N/A
KEALIALALO*    NOT AVBL
LUA MAKIKA*    NOT AVBL
$$

HIZ014>015-231900-
LANAI-

CITY           SKY/WX    TMP DP  RH WIND       PRES   REMARKS
LANAI CITY     FAIR      69  64  84 E6        30.21R
LANAI 1*       NOT AVBL
$$

HIZ017>028-231900-
MAUI-

CITY           SKY/WX    TMP DP  RH WIND       PRES   REMARKS
KAHULUI        PTSUNNY   71  63  75 SE5       30.16R
KAPALUA-W MAUI PTSUNNY   73  64  73 NE14      30.16R
HANA AIRPORT   CLOUDY    75  66  73 E3        30.20R
HANA*            N/A     75 N/A N/A E8G14       N/A
HALEAKALA SUMM   N/A     48  12  23 SE15G43     N/A
MAALAEA BAY*   NOT AVBL
HALEAKALA*     NOT AVBL
KAUPO GAP*     NOT AVBL
KULA 1*          N/A     54  34  47 E3          N/A
$$

HIZ023>026-231900-
BIG ISLAND OF HAWAII COAST AND LOWER SLOPES-

CITY           SKY/WX    TMP DP  RH WIND       PRES   REMARKS
KAILUA KONA    MOSUNNY   81  58  45 CALM      30.13R
HILO           PTSUNNY   74  65  73 SW7       30.16R
HONOKAA*         N/A     66 N/A N/A VRB1        N/A
KAWAIHAE MWT*    N/A     75 N/A N/A S1          N/A
KAWAIHAE*      NOT AVBL
SOUTH POINT*     N/A     72 N/A N/A N13G18      N/A
UPOLU AIRPORT* NOT AVBL
KAMUELA*       CLEAR     66  55  68 CALM      30.26R
HAKALAU*         N/A     57  45  64 S8G14       N/A
KALOKO-HONOKO* NOT AVBL
PALI 2*          N/A    N/A N/A N/A S9          N/A
KEALAKOMO*       N/A     79  68  69 NE9         N/A
KAUPULEHU*     NOT AVBL
KAPAPALA*        N/A     73  61  65 W2          N/A
LOWER KAHUKU*  NOT AVBL
PUHE CS*       NOT AVBL
PUHO CS*       NOT AVBL
PTA KEAMUKU*     N/A     66  52  59 CALM        N/A
WAIKOLOA*      NOT AVBL
$$

HIZ027>028-231900-
BIG ISLAND OF HAWAII INTERIOR AND SUMMMITS-

CITY           SKY/WX    TMP DP  RH WIND       PRES   REMARKS
BRADSHAW FIELD CLOUDY    58  37  46 W3        30.44R
MK VISITOR CEN   N/A     54  19  26 S3          N/A
MAUNA KEA*       N/A     41 -11  10 E9          N/A
MAUNA LOA*       N/A    N/A N/A N/A MISG        N/A
MAUNA LOA 1*   NOT AVBL
PTA KIPUKA*      N/A     57  46  67 SE1         N/A
PTA RANGE 17*    N/A     75  63  64 W1G7        N/A
PTA WEST*        N/A     63  52  67 E3G12       N/A
NENE CABIN*    NOT AVBL
AHUMOA*        NOT AVBL
PTA PORTABLE*  NOT AVBL
PUU MALI*        N/A     59  39  47 VRB3        N/A
$$

HIC003-231900-
NORTHWEST ISLANDS-

CITY           SKY/WX    TMP DP  RH WIND       PRES   REMARKS
MIDWAY ISLAND  MOCLDY    72  72 100 S16       29.83R
MIDWAY NOS*    NOT AVBL
FRENCH FRIGATE NOT AVBL
$$

PHZ110>124-180-231900-
BUOY REPORTS

STATION/POSITION TIME  TEMP    WIND        PRES    WAVE   SWELL
                       AIR SEA DIR/SP/G            HT/PER HT/DIR
                 (UTC) (F)     (DEG/KT/KT) (MB)    (FT/S) (FT/D)
BUOY 51001       1750   74 76  140/  8/ 10 1020.6R   5/13   5/310
BUOY 51101       1750   75 76  130/  8/ 10 1021.0R   5/13   5/280
BUOY 51100       NOT AVBL
BUOY 51002       1750   77 78   70/ 12/ 16 1018.6R   7/ 7   5/100
BUOY 51003       1750   77 78   60/ 14/ 17 1019.8R   6/14   5/310
BUOY 51004       1650      77  110/ 16/ 17 1018.5    7/ 7   5/100
BARBERS PT BUOY  NOT AVBL
WAIMEA BAY BUOY  1702      74                N/A     5/13   3/310
KAILUA BAY BUOY  1734      77                N/A     5/ 7   2/ 50
LANAI BUOY       1745      78                N/A     4/13   3/260
BARBERS PT 2     NOT AVBL
PAUWELA MAUI     1739      76                N/A     5/13   2/320
HILO             1742      77                N/A     6/ 7   2/ 10
KANEOHE BAY BUOY 1755      76                N/A     4/ 7   2/350
HANALEI KAUAI    1752      77                N/A     6/13   5/310
KAHULUI HARBOR   1742   74 77   40/  4/  7 1021.0R
HONOLULU HARBOR  1748   76 77  150/  1/  1 1021.8R
KILO NALU        NOT AVBL
HILO HARBOR      1748   73 76  220/  5/  8 1021.1R
MOKUOLOE         1736   77 78  100/  6/ 10 1021.1R
NAWILIWILI       1748   70     240/  3/  5 1021.0R
WHOTS BUOY       NOT AVBL
BUOY 51028       NOT AVBL
$$

......................KEY........................................
  SKY/WX - SKY CONDITIONS/PRESENT WEATHER
  TMP    - TEMPERATURE IN FAHRENHEIT
  DWPT   - DEWPOINT IN FAHRENHEIT
  RH     - RELATIVE HUMIDITY IN PERCENT
  WIND   - DIRECTION AND SPEED /MPH FOR ISLANDS...KTS FOR BUOYS/
  PRES   - MEAN SEA LEVEL PRESSURE IN INCHES OF HG
  VSB    - VISIBILITY IN MILES
  HX     - HEAT INDEX
  WCI    - WIND CHILL INDEX
  VRB    - VARIABLE WIND DIRECTION
  N/A    - NOT AVAILABLE




USA.gov is the U.S. government's official web portal to all federal, state and local government web resources and services.